RH
13 13 13 13 12 9 7 6 5 6 5 5 6 7 7 6 5 4 4 5 7 12 17 18 20 23 24 37 57 61 47 33 29 39 52 58 60 73 82 81 87 90 90 91 89 92 90 87 89 88 86 80
18 18 19 19 18 15 12 11 9 8 6 5 5 6 7 7 7 5 4 5 8 17 24 30 37 45 49 57 72 79 74 59 46 48 62 71 68 75 88 86 86 91 93 97 95 96 93 88 88 90 92 87
21 22 22 22 21 19 17 15 13 12 10 8 6 6 6 6 7 7 6 4 6 18 31 47 64 73 82 87 88 91 90 82 70 65 69 78 82 83 93 91 84 87 93 98 98 101 98 92 91 90 95 96
22 23 22 22 21 19 17 15 14 13 12 11 9 8 7 6 6 6 8 6 5 11 25 52 78 84 86 89 88 89 94 96 91 86 82 82 89 93 97 95 86 86 94 99 99 100 100 98 98 95 95 97
23 22 21 20 18 17 16 15 14 13 11 11 10 9 8 7 6 6 7 7 6 6 12 35 71 87 87 86 83 82 88 96 97 96 93 90 94 95 96 98 91 84 87 95 99 101 100 100 100 100 98 98
21 20 18 17 16 15 15 14 13 13 12 11 10 9 9 8 7 6 6 6 6 7 8 18 50 82 91 89 84 81 83 90 94 94 93 91 93 93 93 96 93 86 85 88 94 100 100 99 100 100 100 100
17 16 16 15 15 14 14 13 13 12 12 12 11 10 9 8 8 7 7 6 7 7 8 11 28 57 78 83 80 79 81 88 93 94 94 89 85 88 93 96 95 91 89 90 91 96 98 99 100 100 99 99
15 15 15 14 14 13 13 12 11 11 11 11 11 11 10 9 9 9 8 7 7 7 8 10 16 32 54 69 77 84 88 89 94 96 95 93 87 85 93 99 99 94 91 92 92 92 95 97 97 98 99 99
14 13 13 12 11 10 9 8 8 8 8 9 10 10 11 11 11 10 10 9 8 8 8 8 11 24 48 66 69 78 93 94 94 97 95 93 93 89 91 99 101 97 92 92 92 91 92 94 95 96 98 99
9 9 7 7 6 5 5 4 4 4 4 5 6 8 9 10 12 12 12 11 10 9 9 8 11 22 47 74 75 65 80 99 98 96 96 94 95 94 92 93 97 100 97 93 93 93 93 94 94 93 95 97
5 4 4 3 3 2 2 2 2 2 2 2 3 3 5 6 9 11 12 13 12 11 10 10 11 16 29 60 89 83 74 91 101 97 96 95 95 96 94 91 92 96 100 98 97 96 96 96 96 94 93 94
2 2 2 2 2 2 1 2 2 2 2 1 2 2 2 3 4 6 9 11 14 14 13 11 11 14 17 30 71 98 90 87 95 96 95 95 96 93 92 93 91 92 97 100 99 98 99 98 98 97 94 94
2 1 2 1 2 2 1 2 1 1 2 1 1 1 1 1 2 2 4 6 9 13 14 15 12 12 17 19 37 75 97 96 91 91 93 96 98 96 93 93 93 95 97 99 100 98 98 97 97 98 97 97
2 2 2 2 2 2 2 2 2 2 2 2 2 2 2 1 2 1 1 2 3 7 10 14 16 13 14 18 22 40 70 91 92 90 96 100 99 99 98 96 97 99 99 100 100 97 95 94 94 96 97 96
2 2 2 2 2 2 2 2 2 2 2 2 2 2 2 2 2 2 1 2 1 2 4 7 12 16 16 15 18 24 40 68 84 87 95 101 100 99 99 100 100 100 100 99 100 98 94 91 91 91 92 93
3 3 2 2 2 2 2 2 2 2 2 2 2 1 2 2 2 2 2 2 3 2 2 2 4 9 15 17 17 19 25 45 67 81 90 96 99 98 97 100 101 99 100 100 100 98 93 90 89 89 89 89
3 2 3 2 2 2 2 2 2 2 2 1 2 2 1 2 1 2 2 2 2 3 2 2 2 2 6 13 18 20 22 32 52 72 83 90 96 99 99 99 100 101 99 99 100 99 95 87 84 86 89 89
3 3 3 2 2 3 2 3 3 2 3 2 2 2 2 2 2 2 2 2 2 2 3 2 3 3 1 4 9 16 21 28 47 68 80 85 86 92 99 101 99 99 97 98 100 100 98 91 85 84 86 89
4 3 3 3 3 3 3 3 3 3 3 3 3 3 3 3 3 3 2 2 2 2 3 3 3 3 3 2 2 6 13 21 38 64 88 95 86 82 88 98 102 99 95 96 98 100 100 96 93 87 84 88
4 4 4 4 4 4 4 4 4 4 4 4 4 4 4 4 4 3 3 3 3 3 2 3 3 3 3 4 2 2 4 10 20 41 75 94 94 90 84 86 96 101 99 98 98 100 100 99 99 94 89 91
5 5 5 5 5 5 5 5 5 5 5 5 5 5 5 5 5 4 4 4 3 3 3 3 3 4 4 4 4 3 1 3 7 16 41 64 78 90 92 87 89 96 102 100 95 99 101 99 100 99 96 95
7 6 6 6 7 7 6 7 6 6 6 6 6 7 6 6 6 5 5 5 4 4 4 4 3 3 4 4 4 5 4 2 3 4 13 32 49 65 79 88 92 94 101 98 89 96 102 99 100 101 99 99
9 8 8 8 8 9 9 8 9 8 8 8 8 8 7 7 6 6 6 5 5 5 4 4 4 4 4 5 5 5 5 4 3 3 2 9 23 36 50 65 81 92 101 96 86 92 102 100 100 100 100 100
11 11 11 11 11 10 11 11 10 10 10 10 9 9 8 8 8 7 7 6 6 6 6 6 5 6 5 5 6 6 6 5 3 4 3 2 5 16 29 39 55 77 95 99 91 92 99 100 100 100 100 100
14 14 13 13 13 12 13 12 12 12 12 11 10 10 10 9 9 8 8 7 7 7 7 7 7 7 7 7 7 7 7 7 5 4 3 3 2 3 13 24 36 55 76 93 98 98 100 100 100 99 100 100
17 16 16 15 15 15 15 14 14 14 13 13 12 12 11 11 11 10 9 9 8 9 8 8 9 9 9 9 9 9 9 8 7 6 4 4 4 2 3 10 21 34 50 70 86 96 100 100 100 100 99 100
20 19 18 18 18 17 17 16 16 16 15 15 15 14 14 13 13 12 11 11 10 11 11 10 11 10 11 11 11 10 10 10 8 7 6 4 4 4 3 4 8 17 29 43 59 76 91 99 99 100 100 100
22 22 21 20 20 19 19 19 18 18 18 18 18 17 17 16 15 14 13 13 13 13 13 13 12 12 12 12 12 12 11 11 10 8 7 6 5 4 4 4 4 7 14 24 36 49 69 89 98 100 100 100
25 25 24 23 22 22 22 22 21 21 21 20 20 20 20 19 18 17 16 15 16 15 15 15 14 14 14 13 12 13 12 11 11 10 8 7 6 5 4 4 4 5 7 12 20 29 45 70 87 96 101 100
27 27 27 26 25 25 24 24 24 24 23 23 23 22 22 21 21 20 19 18 18 18 17 17 16 15 15 15 13 13 13 12 11 10 8 7 6 6 5 5 4 5 6 7 11 17 29 50 67 81 96 101
28 29 29 28 27 27 27 26 27 27 27 27 26 26 25 24 24 23 22 21 20 19 19 18 17 17 16 16 16 15 14 13 11 9 8 7 6 6 6 5 5 4 5 6 8 10 18 35 51 60 79 95
Wind_Speed
29 29 29 29 29 29 29 30 29 28 27 27 27 26 23 24 27 27 28 29 29 30 31 32 33 33 33 34 34 35 37 39 40 39 40 39 38 35 34 34 29 29 36 41 40 37 37 38 37 36 37 39
28 28 29 29 30 30 30 31 31 30 29 28 28 29 27 25 26 27 28 28 28 28 29 29 30 31 31 33 33 34 35 36 37 37 36 37 36 33 33 34 27 19 19 27 39 40 38 37 36 36 37 38
28 28 29 30 31 32 32 32 33 33 32 31 31 31 31 29 27 27 28 28 28 28 28 28 27 26 27 29 29 31 32 33 34 34 33 33 34 34 35 36 30 22 15 12 23 35 36 36 36 36 37 38
29 30 31 32 33 33 33 34 34 35 35 34 33 33 33 33 30 28 28 28 29 29 28 28 26 25 25 26 25 26 28 29 30 30 30 30 31 33 35 39 35 28 20 8 11 25 28 29 31 33 37 38
30 31 33 34 35 35 35 35 35 35 35 34 34 34 34 34 33 32 30 29 29 30 31 30 29 27 26 26 26 26 25 26 26 26 27 28 31 33 33 37 38 30 27 19 11 21 26 25 25 26 31 35
31 33 34 35 36 37 37 36 36 35 34 33 33 33 33 33 33 33 33 32 30 30 32 32 31 30 28 28 29 28 26 25 25 25 25 25 28 33 35 36 37 32 31 32 23 19 24 24 27 25 25 31
33 34 35 36 36 37 37 36 36 35 33 32 31 31 31 32 32 33 33 34 32 31 32 33 33 32 31 31 30 29 27 26 24 25 25 25 24 26 30 32 35 35 33 36 32 25 25 25 29 28 22 24
33 34 34 35 35 35 34 34 35 34 33 32 31 30 30 30 31 32 33 33 33 33 33 33 33 33 32 32 31 29 28 27 24 24 23 23 24 24 24 23 25 28 31 35 34 31 33 31 30 31 27 23
34 34 34 34 33 33 33 33 32 33 33 33 32 30 29 29 29 31 33 33 33 33 35 35 34 34 31 31 33 32 30 29 26 25 24 22 22 23 24 24 22 22 24 30 33 32 34 34 33 33 32 29
33 34 33 33 33 33 33 32 32 31 31 31 31 31 30 29 28 29 31 33 34 33 35 36 35 34 31 30 32 34 32 30 29 28 27 25 24 23 25 27 29 26 24 26 29 31 32 33 34 35 35 35
33 33 33 34 34 33 33 33 33 32 32 31 31 31 30 29 29 28 29 31 33 34 35 36 36 36 34 32 31 33 34 32 30 29 29 28 27 26 27 28 31 32 30 28 28 29 31 31 33 34 35 35
32 33 33 33 33 34 34 34 34 34 34 33 32 32 31 30 29 29 29 30 32 34 35 36 38 38 37 35 33 33 34 33 31 30 31 30 30 30 30 30 31 33 34 34 33 32 33 34 36 37 37 36
32 32 33 33 34 34 34 35 35 35 35 35 35 34 33 33 31 30 29 30 31 32 34 35 37 39 39 38 36 35 36 36 35 34 34 33 32 33 33 33 33 33 34 34 35 36 36 37 39 40 40 40
32 33 34 34 35 35 35 36 36 36 37 37 37 37 36 36 35 34 32 30 30 31 33 34 36 38 39 39 39 38 38 38 38 37 35 35 35 35 36 36 35 35 34 33 33 34 35 35 35 36 37 38
31 32 33 34 35 35 36 36 36 37 37 38 39 39 39 39 38 38 36 35 32 31 32 33 35 36 38 39 39 40 40 39 40 40 38 36 36 37 38 37 36 37 36 35 34 34 34 34 33 33 33 34
31 32 32 33 34 35 36 36 37 38 38 38 39 40 41 41 41 41 40 40 38 35 33 33 34 35 37 39 40 40 40 40 40 41 41 39 37 38 39 38 36 38 38 38 37 36 35 35 34 33 32 33
31 31 31 32 33 35 36 37 38 39 40 40 40 41 41 42 43 43 43 43 42 41 39 36 34 34 36 37 39 40 40 40 40 41 41 41 40 39 40 40 38 38 39 39 40 40 38 36 35 34 33 32
31 31 32 33 34 35 36 38 39 40 41 42 42 42 43 43 44 44 44 44 44 44 43 41 39 37 36 36 38 40 40 40 40 40 41 42 44 43 41 40 40 41 41 41 42 42 40 37 36 35 34 33
32 33 34 35 36 37 38 39 40 41 42 43 43 44 44 44 45 45 45 45 45 45 45 44 43 41 39 38 38 39 40 41 40 41 41 42 44 48 48 43 40 42 44 44 43 43 42 38 36 37 36 35
33 34 35 36 38 39 40 41 41 42 44 45 45 45 45 45 45 46 46 46 46 46 46 46 45 44 43 41 40 40 40 41 41 42 44 45 44 46 50 49 46 43 42 43 44 45 46 41 39 40 38 35
34 36 37 38 39 41 42 44 44 44 45 46 47 47 48 47 47 47 47 46 46 47 47 47 47 46 45 44 42 42 42 42 42 43 45 49 49 47 46 49 51 50 46 45 46 47 49 46 41 42 40 37
36 37 38 39 40 41 43 44 46 47 47 47 48 48 49 50 50 49 48 48 47 46 46 47 47 47 47 46 45 43 43 43 43 44 45 47 51 52 51 49 50 53 51 48 49 50 50 48 45 43 42 40
36 37 39 40 41 41 42 43 45 47 48 49 49 48 49 50 51 51 50 49 48 48 46 46 47 47 48 47 47 46 44 44 44 44 45 46 48 51 54 54 53 54 52 48 51 53 51 49 47 45 43 42
36 37 38 39 40 41 42 43 44 46 47 49 49 49 48 48 49 50 51 51 50 50 49 48 47 47 47 48 48 48 47 46 45 45 45 47 48 49 50 53 54 56 54 49 50 53 54 52 50 47 44 42
37 38 39 40 41 42 43 44 45 46 47 48 49 50 49 49 49 49 50 51 51 51 50 49 49 48 47 47 48 49 49 48 46 45 45 46 48 50 50 50 52 54 55 53 50 51 52 53 52 50 47 44
37 38 39 40 41 42 43 44 45 46 47 48 49 51 51 50 50 49 49 50 50 51 50 50 49 49 48 48 48 48 49 50 49 46 45 45 46 49 51 51 51 53 53 53 53 52 50 50 52 54 53 49
38 39 40 41 42 43 44 45 45 46 46 47 48 50 52 52 52 51 50 50 50 50 50 50 50 49 49 49 49 49 49 50 50 49 46 44 45 47 49 51 51 52 53 52 53 54 51 48 47 51 55 54
39 41 42 43 43 44 45 46 47 47 47 47 48 49 51 52 52 52 52 51 50 50 50 50 50 50 49 50 50 50 50 50 50 50 48 44 44 45 48 50 50 50 51 52 52 53 53 50 46 46 50 53
41 42 43 44 45 45 46 46 47 48 48 48 49 49 50 51 53 53 53 53 51 51 50 50 50 50 50 50 50 51 51 51 49 49 49 46 44 44 46 49 50 49 48 49 50 51 52 52 49 45 44 49
42 43 44 45 46 46 46 47 47 48 49 49 49 50 50 51 52 53 54 54 53 52 51 50 49 49 50 49 50 50 50 50 48 47 47 47 45 43 44 46 48 48 46 45 45 47 49 51 51 49 44 45
44 44 45 46 47 47 47 48 48 49 49 50 50 50 51 51 52 53 53 54 54 54 52 51 49 49 48 48 49 49 49 48 47 45 44 45 45 43 42 44 46 47 45 42 41 42 44 47 49 50 48 45
Wind_Direction
298 300 301 303 304 304 304 304 304 301 298 296 296 299 300 299 297 294 291 289 287 286 285 285 285 286 286 286 286 284 278 273 272 273 274 273 271 269 265 263 264 258 250 250 251 250 249 247 248 247 245 244
299 301 303 305 306 307 307 307 307 306 303 299 297 298 299 299 298 295 292 289 286 284 284 284 284 287 289 290 291 289 284 278 272 271 272 274 275 273 264 254 248 235 226 236 241 243 246 245 245 244 243 243
300 302 303 305 306 307 307 308 307 307 306 303 300 298 298 297 296 296 292 289 286 282 281 280 280 283 287 291 294 293 290 284 278 275 273 274 276 275 262 246 240 233 209 201 223 231 237 239 241 242 241 241
299 301 302 303 304 305 306 306 306 306 306 305 303 300 298 296 295 293 290 288 286 282 278 275 273 274 277 281 287 291 289 286 283 279 277 274 271 268 258 243 238 240 236 219 196 212 219 223 229 232 235 239
297 298 300 302 303 305 305 306 305 305 304 303 302 300 298 297 295 291 288 285 283 281 277 273 270 269 270 271 275 281 282 281 281 280 277 273 266 260 257 248 243 245 248 253 228 201 202 203 206 207 215 223
296 298 300 302 303 305 306 307 306 305 303 302 300 298 297 295 293 290 287 285 281 278 275 272 269 267 269 269 271 274 276 275 275 278 276 271 266 260 259 258 256 257 254 258 259 222 208 205 200 196 195 203
297 299 301 302 304 305 307 308 308 307 306 304 301 298 295 293 292 290 287 285 282 278 274 272 268 265 267 269 270 271 271 271 270 271 272 270 268 264 262 264 266 265 259 258 263 251 239 229 214 213 211 203
300 301 303 304 306 307 308 308 309 309 308 307 305 301 297 294 290 289 286 284 282 279 276 273 269 266 265 265 266 267 268 267 265 263 265 266 266 266 261 264 270 270 262 256 259 257 253 247 234 233 238 229
304 305 306 307 308 309 309 309 309 310 309 309 308 306 302 297 292 289 287 284 281 278 276 274 272 270 267 266 265 265 267 268 267 263 261 260 260 263 260 255 261 268 264 256 254 256 255 252 247 244 246 245
310 310 310 310 310 311 311 310 310 310 310 310 309 308 306 302 296 290 287 285 282 278 276 274 272 271 268 266 266 266 265 266 268 267 264 262 257 258 259 254 252 256 259 259 256 255 257 258 254 250 248 247
316 316 316 316 315 315 314 314 313 312 311 310 309 309 308 306 302 296 290 285 283 281 278 275 272 271 268 264 264 266 265 263 265 268 268 267 263 258 259 258 255 254 254 255 256 254 256 259 259 257 254 251
319 319 320 320 320 320 319 318 316 315 314 313 312 311 309 308 307 303 297 291 286 283 281 279 275 273 270 265 261 261 263 262 262 265 267 268 268 265 263 262 259 257 255 253 254 254 255 257 260 260 259 256
320 321 321 322 322 322 322 321 320 319 318 317 316 314 313 311 309 307 304 299 293 288 284 281 279 276 274 271 264 259 259 259 259 261 263 265 266 268 269 269 266 262 259 256 255 255 256 258 259 260 259 258
320 320 320 320 320 321 321 321 321 321 320 319 317 317 316 314 313 311 309 306 301 296 291 286 283 280 278 275 270 264 259 258 258 257 259 262 263 265 268 269 269 267 262 259 257 256 256 257 258 258 257 256
320 320 319 319 319 319 320 320 320 320 320 319 319 318 317 317 316 315 313 311 308 303 298 293 289 285 282 279 276 270 264 259 258 255 254 259 261 260 262 262 263 264 263 262 260 258 257 256 256 256 256 256
319 319 320 321 321 321 322 321 321 321 320 320 320 319 318 318 317 316 315 313 312 309 305 300 295 290 286 283 281 277 270 263 259 256 252 253 258 258 259 257 257 260 261 263 264 261 259 258 256 255 256 256
319 320 321 322 322 323 323 323 322 322 322 321 320 320 319 318 317 316 316 315 313 312 309 305 301 296 291 286 284 282 278 269 262 259 254 250 251 256 259 257 256 258 258 261 264 261 259 258 256 254 254 254
320 321 321 321 322 322 322 322 322 321 321 320 320 319 318 317 317 316 315 315 314 312 311 309 305 301 296 291 287 284 281 275 265 261 260 255 250 252 258 258 259 261 258 259 261 259 257 257 256 253 252 252
322 322 323 323 322 322 322 322 321 321 320 320 319 318 317 316 315 314 313 313 312 312 311 309 307 304 300 296 292 287 283 279 270 261 259 260 254 250 254 258 260 260 257 257 259 258 255 255 256 255 252 251
323 323 323 322 322 321 320 320 320 320 319 319 318 317 316 315 314 313 312 311 310 310 309 309 308 306 303 299 295 291 286 281 275 266 258 260 260 252 250 252 256 259 259 258 258 258 256 253 253 254 253 252
323 322 321 321 321 320 319 319 318 318 317 317 317 316 315 315 314 313 311 310 309 308 307 307 307 306 304 302 298 294 290 285 280 273 263 260 263 261 254 249 251 257 262 259 256 258 255 251 249 250 252 251
322 321 320 320 320 320 319 319 318 317 317 316 316 315 315 314 313 312 311 310 309 308 307 306 305 305 304 302 300 297 292 288 284 279 272 264 262 264 263 256 251 254 259 256 254 258 254 248 246 245 247 248
322 321 320 320 320 320 320 319 319 318 317 316 315 314 314 313 312 312 311 310 309 308 307 306 305 304 303 302 300 298 294 290 286 282 278 272 266 264 264 262 256 254 256 252 250 256 255 249 245 240 242 245
322 321 321 320 320 320 320 320 319 318 317 316 315 313 312 311 310 309 309 308 308 308 307 307 305 304 303 301 300 298 296 292 288 283 279 276 272 268 265 263 260 257 256 253 249 251 252 250 244 237 237 242
322 321 321 321 321 321 320 320 319 318 317 316 314 313 312 310 309 308 307 307 306 307 306 306 305 304 303 301 300 298 296 294 291 286 281 277 274 271 268 264 262 260 257 256 252 249 249 248 245 238 236 239
322 321 321 321 320 320 319 319 318 317 317 316 315 314 313 312 310 308 307 306 305 305 304 304 304 304 303 302 300 298 296 294 292 289 284 279 275 273 272 269 265 263 261 258 256 253 250 247 245 242 239 238
322 321 320 320 319 319 318 317 317 316 316 315 315 314 314 313 311 309 307 305 304 303 303 303 302 302 302 301 300 299 297 294 292 290 286 281 276 274 273 273 271 268 265 263 259 258 255 251 247 243 241 240
322 321 320 319 318 318 317 317 316 315 315 315 314 314 313 312 310 309 308 306 304 303 302 302 301 301 301 300 300 299 297 294 291 289 286 282 277 274 272 273 275 273 270 267 263 262 259 255 253 248 243 241
321 319 318 318 317 317 316 315 315 314 314 314 314 313 312 311 310 309 307 306 304 302 301 301 300 300 300 299 299 298 296 294 290 287 285 282 277 274 272 272 274 276 275 271 268 265 263 258 256 255 248 243
319 318 317 316 315 315 314 314 313 313 313 313 313 312 311 310 309 308 306 305 303 302 300 299 299 299 299 299 298 297 295 292 289 284 281 280 278 274 272 271 273 276 277 276 272 269 266 262 258 257 253 247
318 317 316 315 315 314 314 313 313 313 312 312 312 311 311 310 308 307 306 304 303 301 300 299 298 298 298 298 297 295 293 290 286 282 278 277 277 276 273 270 271 275 278 278 276 272 268 265 262 259 257 252